Time,TemperatureF,DewpointF,PressureIn,WindDirection,WindDirectionDegrees,WindSpeedMPH,WindSpeedGustMPH,Humidity,HourlyPrecipIn,Conditions,Clouds,dailyrainin,SoftwareType,DateUTC
2013-08-05 00:02:00,67.0,33.0,-100.00,WSW,258,11.0,20.0,28,-99.99,,,-99.99,,2013-08-05 06:02:00,
2013-08-05 00:12:00,67.0,33.0,-100.00,WSW,254,10.0,21.0,28,-99.99,,,-99.99,,2013-08-05 06:12:00,
2013-08-05 00:22:00,67.0,33.0,-100.00,WSW,254,10.0,21.0,28,-99.99,,,-99.99,,2013-08-05 06:22:00,
2013-08-05 00:32:00,67.0,33.0,-100.00,WSW,254,10.0,21.0,28,-99.99,,,-99.99,,2013-08-05 06:32:00,
2013-08-05 00:52:00,67.0,33.0,-100.00,SW,226,6.0,12.0,28,-99.99,,,-99.99,,2013-08-05 06:52:00,
2013-08-05 01:02:00,66.0,34.0,-100.00,SSW,198,9.0,15.0,29,-99.99,,,-99.99,,2013-08-05 07:02:00,
2013-08-05 01:12:00,66.0,34.0,-100.00,SSW,198,9.0,15.0,29,-99.99,,,-99.99,,2013-08-05 07:12:00,
2013-08-05 01:22:00,66.0,34.0,-100.00,SSW,192,10.0,17.0,30,-99.99,,,-99.99,,2013-08-05 07:22:00,
2013-08-05 01:32:00,66.0,34.0,-100.00,SSW,192,10.0,17.0,30,-99.99,,,-99.99,,2013-08-05 07:32:00,
2013-08-05 01:43:00,65.0,33.0,-100.00,SSW,210,11.0,20.0,30,-99.99,,,-99.99,,2013-08-05 07:43:00,
2013-08-05 01:53:00,65.0,33.0,-100.00,SSW,210,11.0,20.0,30,-99.99,,,-99.99,,2013-08-05 07:53:00,
2013-08-05 02:02:00,65.0,33.0,-100.00,SW,214,11.0,18.0,29,-99.99,,,-99.99,,2013-08-05 08:02:00,
2013-08-05 02:22:00,65.0,33.0,-100.00,SSW,205,10.0,17.0,29,-99.99,,,-99.99,,2013-08-05 08:22:00,
2013-08-05 02:34:00,65.0,33.0,-100.00,SSW,205,10.0,17.0,29,-99.99,,,-99.99,,2013-08-05 08:34:00,
2013-08-05 02:45:00,66.0,32.0,-100.00,SW,219,5.0,16.0,28,-99.99,,,-99.99,,2013-08-05 08:45:00,
2013-08-05 02:54:00,66.0,32.0,-100.00,SW,219,5.0,16.0,28,-99.99,,,-99.99,,2013-08-05 08:54:00,
2013-08-05 03:04:00,65.0,33.0,-100.00,West,277,3.0,7.0,29,-99.99,,,-99.99,,2013-08-05 09:04:00,
2013-08-05 03:13:00,65.0,32.0,-100.00,ENE,59,2.0,5.0,29,-99.99,,,-99.99,,2013-08-05 09:13:00,
2013-08-05 03:23:00,65.0,32.0,-100.00,ENE,59,2.0,5.0,29,-99.99,,,-99.99,,2013-08-05 09:23:00,
2013-08-05 03:45:00,64.0,33.0,-100.00,SSE,161,2.0,4.0,30,-99.99,,,-99.99,,2013-08-05 09:45:00,
2013-08-05 04:05:00,63.0,33.0,-100.00,South,185,5.0,7.0,33,-99.99,,,-99.99,,2013-08-05 10:05:00,
2013-08-05 04:13:00,63.0,33.0,-100.00,South,185,5.0,7.0,33,-99.99,,,-99.99,,2013-08-05 10:13:00,
2013-08-05 04:23:00,63.0,34.0,-100.00,South,188,6.0,10.0,34,-99.99,,,-99.99,,2013-08-05 10:23:00,
2013-08-05 04:32:00,63.0,34.0,-100.00,South,188,6.0,10.0,34,-99.99,,,-99.99,,2013-08-05 10:32:00,
2013-08-05 04:45:00,63.0,35.0,-100.00,SSW,207,6.0,12.0,35,-99.99,,,-99.99,,2013-08-05 10:45:00,
2013-08-05 04:52:00,63.0,35.0,-100.00,SSW,207,6.0,12.0,35,-99.99,,,-99.99,,2013-08-05 10:52:00,
2013-08-05 05:23:00,62.0,35.0,-100.00,SSW,203,5.0,12.0,35,-99.99,,,-99.99,,2013-08-05 11:23:00,
2013-08-05 05:34:00,62.0,35.0,-100.00,SSW,203,5.0,12.0,35,-99.99,,,-99.99,,2013-08-05 11:34:00,
2013-08-05 05:45:00,63.0,34.0,-100.00,SSW,201,5.0,9.0,34,-99.99,,,-99.99,,2013-08-05 11:45:00,
2013-08-05 05:58:00,63.0,34.0,-100.00,SSW,201,5.0,9.0,34,-99.99,,,-99.99,,2013-08-05 11:58:00,
2013-08-05 06:05:00,62.0,35.0,-100.00,South,191,5.0,8.0,35,-99.99,,,-99.99,,2013-08-05 12:05:00,
2013-08-05 06:14:00,62.0,35.0,-100.00,South,191,5.0,8.0,35,-99.99,,,-99.99,,2013-08-05 12:14:00,
2013-08-05 06:33:00,62.0,35.0,-100.00,South,179,6.0,10.0,36,-99.99,,,-99.99,,2013-08-05 12:33:00,
2013-08-05 06:45:00,62.0,34.0,-100.00,SSW,206,6.0,10.0,34,-99.99,,,-99.99,,2013-08-05 12:45:00,
2013-08-05 06:58:00,62.0,34.0,-100.00,SSW,206,6.0,10.0,34,-99.99,,,-99.99,,2013-08-05 12:58:00,
2013-08-05 07:13:00,63.0,34.0,-100.00,SSW,209,6.0,10.0,33,-99.99,,,-99.99,,2013-08-05 13:13:00,
2013-08-05 07:23:00,63.0,34.0,-100.00,SSW,207,6.0,10.0,33,-99.99,,,-99.99,,2013-08-05 13:23:00,
2013-08-05 07:34:00,63.0,34.0,-100.00,SSW,207,6.0,10.0,33,-99.99,,,-99.99,,2013-08-05 13:34:00,
2013-08-05 07:43:00,64.0,36.0,-100.00,SSW,205,7.0,12.0,35,-99.99,,,-99.99,,2013-08-05 13:43:00,
2013-08-05 07:54:00,64.0,36.0,-100.00,SSW,205,7.0,12.0,35,-99.99,,,-99.99,,2013-08-05 13:54:00,
2013-08-05 08:04:00,65.0,37.0,-100.00,SW,224,4.0,10.0,35,-99.99,,,-99.99,,2013-08-05 14:04:00,
2013-08-05 08:14:00,65.0,37.0,-100.00,SW,224,4.0,10.0,35,-99.99,,,-99.99,,2013-08-05 14:14:00,
2013-08-05 08:53:00,65.0,39.0,-100.00,SW,219,5.0,11.0,37,-99.99,,,-99.99,,2013-08-05 14:53:00,
2013-08-05 09:04:00,65.0,39.0,-100.00,SSW,205,4.0,12.0,38,-99.99,,,-99.99,,2013-08-05 15:04:00,
2013-08-05 09:13:00,65.0,39.0,-100.00,SSW,205,4.0,12.0,38,-99.99,,,-99.99,,2013-08-05 15:13:00,
2013-08-05 09:24:00,66.0,40.0,-100.00,SW,223,3.0,7.0,38,-99.99,,,-99.99,,2013-08-05 15:24:00,
2013-08-05 09:33:00,66.0,40.0,-100.00,SW,223,3.0,7.0,38,-99.99,,,-99.99,,2013-08-05 15:33:00,
2013-08-05 09:58:00,66.0,41.0,-100.00,SSW,200,4.0,9.0,39,-99.99,,,-99.99,,2013-08-05 15:58:00,
2013-08-05 10:13:00,67.0,41.0,-100.00,SSW,207,3.0,11.0,39,-99.99,,,-99.99,,2013-08-05 16:13:00,
2013-08-05 10:23:00,68.0,42.0,-100.00,North,10,1.0,5.0,39,-99.99,,,-99.99,,2013-08-05 16:23:00,
2013-08-05 10:33:00,68.0,42.0,-100.00,North,10,1.0,5.0,39,-99.99,,,-99.99,,2013-08-05 16:33:00,
2013-08-05 10:59:00,68.0,42.0,-100.00,NW,319,1.0,5.0,39,-99.99,,,-99.99,,2013-08-05 16:59:00,
2013-08-05 11:22:00,69.0,41.0,-100.00,South,186,5.0,12.0,36,-99.99,,,-99.99,,2013-08-05 17:22:00,
2013-08-05 11:45:00,70.0,41.0,-100.00,SSW,192,6.0,16.0,34,-99.99,,,-99.99,,2013-08-05 17:45:00,
2013-08-05 11:59:00,70.0,41.0,-100.00,SSW,192,6.0,16.0,34,-99.99,,,-99.99,,2013-08-05 17:59:00,
2013-08-05 12:04:00,71.0,41.0,-100.00,South,189,7.0,16.0,34,-99.99,,,-99.99,,2013-08-05 18:04:00,
2013-08-05 12:13:00,71.0,41.0,-100.00,South,189,7.0,16.0,34,-99.99,,,-99.99,,2013-08-05 18:13:00,
2013-08-05 12:23:00,72.0,40.0,-100.00,SSW,192,8.0,16.0,31,-99.99,,,-99.99,,2013-08-05 18:23:00,
2013-08-05 12:33:00,72.0,40.0,-100.00,SSW,192,8.0,16.0,31,-99.99,,,-99.99,,2013-08-05 18:33:00,
2013-08-05 12:44:00,72.0,39.0,-100.00,South,187,5.0,12.0,30,-99.99,,,-99.99,,2013-08-05 18:44:00,
2013-08-05 12:54:00,72.0,39.0,-100.00,South,187,5.0,12.0,30,-99.99,,,-99.99,,2013-08-05 18:54:00,
2013-08-05 13:05:00,70.0,38.0,-100.00,SW,216,4.0,10.0,30,-99.99,,,-99.99,,2013-08-05 19:05:00,
2013-08-05 13:13:00,70.0,38.0,-100.00,SW,216,4.0,10.0,30,-99.99,,,-99.99,,2013-08-05 19:13:00,
2013-08-05 13:23:00,70.0,38.0,-100.00,WNW,299,4.0,7.0,31,-99.99,,,-99.99,,2013-08-05 19:23:00,
2013-08-05 13:33:00,70.0,38.0,-100.00,WNW,299,4.0,7.0,31,-99.99,,,-99.99,,2013-08-05 19:33:00,
2013-08-05 13:47:00,70.0,42.0,-100.00,North,355,4.0,7.0,36,-99.99,,,-99.99,,2013-08-05 19:47:00,
2013-08-05 13:56:00,70.0,42.0,-100.00,North,355,4.0,7.0,36,-99.99,,,-99.99,,2013-08-05 19:56:00,
2013-08-05 14:04:00,70.0,42.0,-100.00,North,2,3.0,5.0,36,-99.99,,,-99.99,,2013-08-05 20:04:00,
2013-08-05 14:33:00,73.0,40.0,-100.00,NNE,23,6.0,13.0,30,-99.99,,,-99.99,,2013-08-05 20:33:00,
2013-08-05 14:45:00,73.0,37.0,-100.00,NW,315,3.0,12.0,27,-99.99,,,-99.99,,2013-08-05 20:45:00,
2013-08-05 14:59:00,73.0,37.0,-100.00,NW,315,3.0,12.0,27,-99.99,,,-99.99,,2013-08-05 20:59:00,
2013-08-05 15:33:00,70.0,33.0,-100.00,WNW,289,6.0,17.0,25,-99.99,,,-99.99,,2013-08-05 21:33:00,
2013-08-05 15:45:00,68.0,33.0,-100.00,West,273,16.0,32.0,27,-99.99,,,-99.99,,2013-08-05 21:45:00,
2013-08-05 15:53:00,68.0,33.0,-100.00,West,273,16.0,32.0,27,-99.99,,,-99.99,,2013-08-05 21:53:00,
2013-08-05 16:04:00,67.0,34.0,-100.00,West,276,11.0,21.0,29,-99.99,,,-99.99,,2013-08-05 22:04:00,
2013-08-05 16:13:00,67.0,34.0,-100.00,West,276,11.0,21.0,29,-99.99,,,-99.99,,2013-08-05 22:13:00,
2013-08-05 16:33:00,68.0,34.0,-100.00,West,264,8.0,18.0,28,-99.99,,,-99.99,,2013-08-05 22:33:00,
2013-08-05 16:53:00,73.0,37.0,-100.00,NW,305,4.0,9.0,26,-99.99,,,-99.99,,2013-08-05 22:53:00,
2013-08-05 17:04:00,75.0,36.0,-100.00,NNW,344,5.0,12.0,24,-99.99,,,-99.99,,2013-08-05 23:04:00,
2013-08-05 17:13:00,75.0,36.0,-100.00,NNW,344,5.0,12.0,24,-99.99,,,-99.99,,2013-08-05 23:13:00,
2013-08-05 17:23:00,76.0,36.0,-100.00,NNW,344,6.0,12.0,23,-99.99,,,-99.99,,2013-08-05 23:23:00,
2013-08-05 17:33:00,76.0,36.0,-100.00,NNW,344,6.0,12.0,23,-99.99,,,-99.99,,2013-08-05 23:33:00,
2013-08-05 17:44:00,76.0,35.0,-100.00,North,356,6.0,13.0,22,-99.99,,,-99.99,,2013-08-05 23:44:00,
2013-08-05 18:02:00,76.0,35.0,-100.00,NNW,335,5.0,10.0,22,-99.99,,,-99.99,,2013-08-06 00:02:00,
2013-08-05 18:14:00,76.0,35.0,-100.00,NNW,335,5.0,10.0,22,-99.99,,,-99.99,,2013-08-06 00:14:00,
2013-08-05 18:24:00,76.0,34.0,-100.00,NW,325,5.0,12.0,21,-99.99,,,-99.99,,2013-08-06 00:24:00,
2013-08-05 18:33:00,76.0,34.0,-100.00,NW,325,5.0,12.0,21,-99.99,,,-99.99,,2013-08-06 00:33:00,
2013-08-05 18:45:00,74.0,33.0,-100.00,NW,320,4.0,12.0,22,-99.99,,,-99.99,,2013-08-06 00:45:00,
2013-08-05 19:04:00,75.0,34.0,-100.00,North,355,7.0,13.0,22,-99.99,,,-99.99,,2013-08-06 01:04:00,
2013-08-05 19:13:00,75.0,34.0,-100.00,North,355,7.0,13.0,22,-99.99,,,-99.99,,2013-08-06 01:13:00,
2013-08-05 19:34:00,75.0,34.0,-100.00,NNW,348,7.0,15.0,21,-99.99,,,-99.99,,2013-08-06 01:34:00,
2013-08-05 20:05:00,72.0,32.0,-100.00,NNW,348,7.0,14.0,22,-99.99,,,-99.99,,2013-08-06 02:05:00,
2013-08-05 20:24:00,71.0,32.0,-100.00,NNW,339,5.0,12.0,24,-99.99,,,-99.99,,2013-08-06 02:24:00,
2013-08-05 20:32:00,71.0,32.0,-100.00,NNW,339,5.0,12.0,24,-99.99,,,-99.99,,2013-08-06 02:32:00,
2013-08-05 20:52:00,68.0,32.0,-100.00,NW,305,5.0,9.0,26,-99.99,,,-99.99,,2013-08-06 02:52:00,
2013-08-05 21:01:00,68.0,32.0,-100.00,WNW,303,7.0,11.0,25,-99.99,,,-99.99,,2013-08-06 03:01:00,
2013-08-05 21:13:00,68.0,32.0,-100.00,WNW,303,7.0,11.0,25,-99.99,,,-99.99,,2013-08-06 03:13:00,
2013-08-05 21:23:00,68.0,31.0,-100.00,WNW,299,7.0,12.0,24,-99.99,,,-99.99,,2013-08-06 03:23:00,
2013-08-05 21:34:00,68.0,31.0,-100.00,WNW,299,7.0,12.0,24,-99.99,,,-99.99,,2013-08-06 03:34:00,
2013-08-05 21:45:00,68.0,30.0,-100.00,WNW,283,6.0,12.0,23,-99.99,,,-99.99,,2013-08-06 03:45:00,
2013-08-05 21:52:00,68.0,30.0,-100.00,WNW,283,6.0,12.0,23,-99.99,,,-99.99,,2013-08-06 03:52:00,
2013-08-05 22:01:00,68.0,30.0,-100.00,West,276,6.0,11.0,23,-99.99,,,-99.99,,2013-08-06 04:01:00,
2013-08-05 22:11:00,68.0,30.0,-100.00,West,276,6.0,11.0,23,-99.99,,,-99.99,,2013-08-06 04:11:00,
2013-08-05 22:22:00,68.0,30.0,-100.00,West,267,6.0,10.0,23,-99.99,,,-99.99,,2013-08-06 04:22:00,
2013-08-05 22:33:00,68.0,30.0,-100.00,West,267,6.0,10.0,23,-99.99,,,-99.99,,2013-08-06 04:33:00,
2013-08-05 22:53:00,68.0,30.0,-100.00,West,263,5.0,9.0,23,-99.99,,,-99.99,,2013-08-06 04:53:00,
2013-08-05 23:21:00,68.0,30.0,-100.00,West,271,5.0,7.0,23,-99.99,,,-99.99,,2013-08-06 05:21:00,
2013-08-05 23:32:00,68.0,30.0,-100.00,West,271,5.0,7.0,23,-99.99,,,-99.99,,2013-08-06 05:32:00,
2013-08-05 23:43:00,68.0,29.0,-100.00,West,273,4.0,6.0,22,-99.99,,,-99.99,,2013-08-06 05:43:00,